Year,Month,Day,Hour,Minute,Value (Times are PST for temperature in C)
2021,05,24,00,00,10.90
2021,05,24,00,01,10.80
2021,05,24,00,02,10.80
2021,05,24,00,03,10.80
2021,05,24,00,04,10.80
2021,05,24,00,05,10.80
2021,05,24,00,06,10.80
2021,05,24,00,07,10.80
2021,05,24,00,08,10.80
2021,05,24,00,09,10.70
2021,05,24,00,10,10.70
2021,05,24,00,11,10.70
2021,05,24,00,12,10.70
2021,05,24,00,13,10.70
2021,05,24,00,14,10.70
2021,05,24,00,15,10.70
2021,05,24,00,16,10.70
2021,05,24,00,17,10.60
2021,05,24,00,18,10.60
2021,05,24,00,19,10.60
2021,05,24,00,20,10.60
2021,05,24,00,21,10.60
2021,05,24,00,22,10.60
2021,05,24,00,23,10.60
2021,05,24,00,24,10.60
2021,05,24,00,25,10.60
2021,05,24,00,26,10.60
2021,05,24,00,27,10.60
2021,05,24,00,28,10.50
2021,05,24,00,29,10.50
2021,05,24,00,30,10.50
2021,05,24,00,31,10.50
2021,05,24,00,32,10.50
2021,05,24,00,33,10.40
2021,05,24,00,34,10.40
2021,05,24,00,35,10.40
2021,05,24,00,36,10.40
2021,05,24,00,37,10.40
2021,05,24,00,38,10.40
2021,05,24,00,39,10.40
2021,05,24,00,40,10.40
2021,05,24,00,41,10.40
2021,05,24,00,42,10.50
2021,05,24,00,43,10.50
2021,05,24,00,44,10.40
2021,05,24,00,45,10.40
2021,05,24,00,46,10.40
2021,05,24,00,47,10.40
2021,05,24,00,48,10.40
2021,05,24,00,49,10.40
2021,05,24,00,50,10.40
2021,05,24,00,51,10.30
2021,05,24,00,52,10.30
2021,05,24,00,53,10.30
2021,05,24,00,54,10.30
2021,05,24,00,55,10.30
2021,05,24,00,56,10.30
2021,05,24,00,57,10.30
2021,05,24,00,58,10.30
2021,05,24,00,59,10.30
2021,05,24,01,00,10.30
2021,05,24,01,01,10.30
2021,05,24,01,02,10.30
2021,05,24,01,03,10.30
2021,05,24,01,04,10.30
2021,05,24,01,05,10.30
2021,05,24,01,06,10.30
2021,05,24,01,07,10.30
2021,05,24,01,08,10.30
2021,05,24,01,09,10.30
2021,05,24,01,10,10.30
2021,05,24,01,11,10.30
2021,05,24,01,12,10.30
2021,05,24,01,13,10.30
2021,05,24,01,14,10.30
2021,05,24,01,15,10.30
2021,05,24,01,16,10.30
2021,05,24,01,17,10.20
2021,05,24,01,18,10.20
2021,05,24,01,19,10.20
2021,05,24,01,20,10.20
2021,05,24,01,21,10.20
2021,05,24,01,22,10.20
2021,05,24,01,23,10.20
2021,05,24,01,24,10.10
2021,05,24,01,25,10.10
2021,05,24,01,26,10.10
2021,05,24,01,27,10.10
2021,05,24,01,28,10.10
2021,05,24,01,29,10.10
2021,05,24,01,30,10.00
2021,05,24,01,31,10.00
2021,05,24,01,32,10.00
2021,05,24,01,33,10.00
2021,05,24,01,34,9.90
2021,05,24,01,35,9.90
2021,05,24,01,36,9.90
2021,05,24,01,37,9.90
2021,05,24,01,38,9.90
2021,05,24,01,39,9.80
2021,05,24,01,40,9.80
2021,05,24,01,41,9.80
2021,05,24,01,42,9.80
2021,05,24,01,43,9.80
2021,05,24,01,44,9.70
2021,05,24,01,45,9.60
2021,05,24,01,46,9.60
2021,05,24,01,47,9.60
2021,05,24,01,48,9.50
2021,05,24,01,49,9.40
2021,05,24,01,50,9.40
2021,05,24,01,51,9.30
2021,05,24,01,52,9.30
2021,05,24,01,53,9.20
2021,05,24,01,54,9.10
2021,05,24,01,55,9.10
2021,05,24,01,56,9.10
2021,05,24,01,57,9.00
2021,05,24,01,58,8.90
2021,05,24,01,59,8.90
2021,05,24,02,00,8.80
2021,05,24,02,01,8.80
2021,05,24,02,02,8.70
2021,05,24,02,03,8.70
2021,05,24,02,04,8.60
2021,05,24,02,05,8.60
2021,05,24,02,06,8.50
2021,05,24,02,07,8.50
2021,05,24,02,08,8.40
2021,05,24,02,09,8.40
2021,05,24,02,10,8.30
2021,05,24,02,11,8.30
2021,05,24,02,12,8.20
2021,05,24,02,13,8.20
2021,05,24,02,14,8.10
2021,05,24,02,15,8.10
2021,05,24,02,16,8.10
2021,05,24,02,17,8.00
2021,05,24,02,18,8.00
2021,05,24,02,19,7.90
2021,05,24,02,20,7.90
2021,05,24,02,21,7.90
2021,05,24,02,22,7.80
2021,05,24,02,23,7.80
2021,05,24,02,24,7.70
2021,05,24,02,25,7.70
2021,05,24,02,26,7.60
2021,05,24,02,27,7.60
2021,05,24,02,28,7.50
2021,05,24,02,29,7.50
2021,05,24,02,30,7.40
2021,05,24,02,31,7.40
2021,05,24,02,32,7.30
2021,05,24,02,33,7.30
2021,05,24,02,34,7.30
2021,05,24,02,35,7.20
2021,05,24,02,36,7.20
2021,05,24,02,37,7.10
2021,05,24,02,38,7.10
2021,05,24,02,39,7.00
2021,05,24,02,40,6.90
2021,05,24,02,41,6.90
2021,05,24,02,42,6.90
2021,05,24,02,43,6.80
2021,05,24,02,44,6.80
2021,05,24,02,45,6.80
2021,05,24,02,46,6.70
2021,05,24,02,47,6.70
2021,05,24,02,48,6.70
2021,05,24,02,49,6.70
2021,05,24,02,50,6.60
2021,05,24,02,51,6.60
2021,05,24,02,52,6.60
2021,05,24,02,53,6.50
2021,05,24,02,54,6.50
2021,05,24,02,55,6.40
2021,05,24,02,56,6.40
2021,05,24,02,57,6.30
2021,05,24,02,58,6.30
2021,05,24,02,59,6.30
2021,05,24,03,00,6.30
2021,05,24,03,01,6.30
2021,05,24,03,02,6.20
2021,05,24,03,03,6.20
2021,05,24,03,04,6.20
2021,05,24,03,05,6.20
2021,05,24,03,06,6.10
2021,05,24,03,07,6.10
2021,05,24,03,08,6.10
2021,05,24,03,09,6.10
2021,05,24,03,10,6.10
2021,05,24,03,11,6.00
2021,05,24,03,12,6.00
2021,05,24,03,13,6.00
2021,05,24,03,14,6.00
2021,05,24,03,15,6.00
2021,05,24,03,16,6.00
2021,05,24,03,17,5.90
2021,05,24,03,18,5.90
2021,05,24,03,19,5.90
2021,05,24,03,20,5.90
2021,05,24,03,21,5.90
2021,05,24,03,22,5.90
2021,05,24,03,23,5.90
2021,05,24,03,24,5.80
2021,05,24,03,25,5.80
2021,05,24,03,26,5.80
2021,05,24,03,27,5.80
2021,05,24,03,28,5.70
2021,05,24,03,29,5.70
2021,05,24,03,30,5.70
2021,05,24,03,31,5.60
2021,05,24,03,32,5.60
2021,05,24,03,33,5.60
2021,05,24,03,34,5.50
2021,05,24,03,35,5.50
2021,05,24,03,36,5.40
2021,05,24,03,37,5.40
2021,05,24,03,38,5.40
2021,05,24,03,39,5.30
2021,05,24,03,40,5.30
2021,05,24,03,41,5.30
2021,05,24,03,42,5.20
2021,05,24,03,43,5.20
2021,05,24,03,44,5.20
2021,05,24,03,45,5.20
2021,05,24,03,46,5.10
2021,05,24,03,47,5.10
2021,05,24,03,48,5.10
2021,05,24,03,49,5.00
2021,05,24,03,50,5.00
2021,05,24,03,51,4.90
2021,05,24,03,52,4.90
2021,05,24,03,53,4.80
2021,05,24,03,54,4.80
2021,05,24,03,55,4.80
2021,05,24,03,56,4.80
2021,05,24,03,57,4.80
2021,05,24,03,58,4.80
2021,05,24,03,59,4.70
2021,05,24,04,00,4.70
2021,05,24,04,01,4.70
2021,05,24,04,02,4.70
2021,05,24,04,03,4.70
2021,05,24,04,04,4.70
2021,05,24,04,05,4.70
2021,05,24,04,06,4.70
2021,05,24,04,07,4.60
2021,05,24,04,08,4.60
2021,05,24,04,09,4.60
2021,05,24,04,10,4.60
2021,05,24,04,11,4.50
2021,05,24,04,12,4.50
2021,05,24,04,13,4.50
2021,05,24,04,14,4.40
2021,05,24,04,15,4.40
2021,05,24,04,16,4.40
2021,05,24,04,17,4.30
2021,05,24,04,18,4.30
2021,05,24,04,19,4.30
2021,05,24,04,20,4.30
2021,05,24,04,21,4.20
2021,05,24,04,22,4.20
2021,05,24,04,23,4.20
2021,05,24,04,24,4.10
2021,05,24,04,25,4.10
2021,05,24,04,26,4.10
2021,05,24,04,27,4.10
2021,05,24,04,28,4.00
2021,05,24,04,29,4.00
2021,05,24,04,30,3.90
2021,05,24,04,31,3.90
2021,05,24,04,32,3.90
2021,05,24,04,33,3.80
2021,05,24,04,34,3.80
2021,05,24,04,35,3.80
2021,05,24,04,36,3.80
2021,05,24,04,37,3.80
2021,05,24,04,38,3.80
2021,05,24,04,39,3.80
2021,05,24,04,40,3.70
2021,05,24,04,41,3.70
2021,05,24,04,42,3.70
2021,05,24,04,43,3.70
2021,05,24,04,44,3.70
2021,05,24,04,45,3.60
2021,05,24,04,46,3.60
2021,05,24,04,47,3.60
2021,05,24,04,48,3.60
2021,05,24,04,49,3.60
2021,05,24,04,50,3.60
2021,05,24,04,51,3.50
2021,05,24,04,52,3.50
2021,05,24,04,53,3.50
2021,05,24,04,54,3.40
2021,05,24,04,55,3.40
2021,05,24,04,56,3.40
2021,05,24,04,57,3.30
2021,05,24,04,58,3.30
2021,05,24,04,59,3.30
2021,05,24,05,00,3.30
2021,05,24,05,01,3.30
2021,05,24,05,02,3.20
2021,05,24,05,03,3.20
2021,05,24,05,04,3.20
2021,05,24,05,05,3.20
2021,05,24,05,06,3.20
2021,05,24,05,07,3.10
2021,05,24,05,08,3.10
2021,05,24,05,09,3.10
2021,05,24,05,10,3.10
2021,05,24,05,11,3.10
2021,05,24,05,12,3.00
2021,05,24,05,13,3.00
2021,05,24,05,14,3.00
2021,05,24,05,15,3.00
2021,05,24,05,16,3.00
2021,05,24,05,17,3.00
2021,05,24,05,18,3.00
2021,05,24,05,19,3.00
2021,05,24,05,20,3.00
2021,05,24,05,21,3.00
2021,05,24,05,22,3.00
2021,05,24,05,23,3.00
2021,05,24,05,24,2.90
2021,05,24,05,25,2.90
2021,05,24,05,26,2.90
2021,05,24,05,27,2.90
2021,05,24,05,28,2.90
2021,05,24,05,29,2.90
2021,05,24,05,30,2.90
2021,05,24,05,31,2.90
2021,05,24,05,32,2.90
2021,05,24,05,33,2.90
2021,05,24,05,34,2.90
2021,05,24,05,35,2.90
2021,05,24,05,36,2.80
2021,05,24,05,37,2.80
2021,05,24,05,38,2.80
2021,05,24,05,39,2.80
2021,05,24,05,40,2.80
2021,05,24,05,41,2.80
2021,05,24,05,42,2.80
2021,05,24,05,43,2.80
2021,05,24,05,44,2.80
2021,05,24,05,45,2.70
2021,05,24,05,46,2.70
2021,05,24,05,47,2.70
2021,05,24,05,48,2.70
2021,05,24,05,49,2.70
2021,05,24,05,50,2.70
2021,05,24,05,51,2.60
2021,05,24,05,52,2.60
2021,05,24,05,53,2.60
2021,05,24,05,54,2.60
2021,05,24,05,55,2.60
2021,05,24,05,56,2.60
2021,05,24,05,57,2.60
2021,05,24,05,58,2.60
2021,05,24,05,59,2.50
2021,05,24,06,00,2.50
2021,05,24,06,01,2.50
2021,05,24,06,02,2.50
2021,05,24,06,03,2.50
2021,05,24,06,04,2.50
2021,05,24,06,05,2.50
2021,05,24,06,06,2.50
2021,05,24,06,07,2.50
2021,05,24,06,08,2.50
2021,05,24,06,09,2.50
2021,05,24,06,10,2.50
2021,05,24,06,11,2.50
2021,05,24,06,12,2.50
2021,05,24,06,13,2.50
2021,05,24,06,14,2.60
2021,05,24,06,15,2.50
2021,05,24,06,16,2.50
2021,05,24,06,17,2.60
2021,05,24,06,18,2.50
2021,05,24,06,19,2.50
2021,05,24,06,20,2.50
2021,05,24,06,21,2.50
2021,05,24,06,22,2.50
2021,05,24,06,23,2.50
2021,05,24,06,24,2.50
2021,05,24,06,25,2.50
2021,05,24,06,26,2.50
2021,05,24,06,27,2.50
2021,05,24,06,28,2.50
2021,05,24,06,29,2.50
2021,05,24,06,30,2.50
2021,05,24,06,31,2.40
2021,05,24,06,32,2.50
2021,05,24,06,33,2.50
2021,05,24,06,34,2.50
2021,05,24,06,35,2.50
2021,05,24,06,36,2.40
2021,05,24,06,37,2.40
2021,05,24,06,38,2.40
2021,05,24,06,39,2.40
2021,05,24,06,40,2.40
2021,05,24,06,41,2.40
2021,05,24,06,42,2.40
2021,05,24,06,43,2.40
2021,05,24,06,44,2.40
2021,05,24,06,45,2.40
2021,05,24,06,46,2.40
2021,05,24,06,47,2.40
2021,05,24,06,48,2.40
2021,05,24,06,49,2.40
2021,05,24,06,50,2.40
2021,05,24,06,51,2.40
2021,05,24,06,52,2.40
2021,05,24,06,53,2.40
2021,05,24,06,54,2.40
2021,05,24,06,55,2.40
2021,05,24,06,56,2.40
2021,05,24,06,57,2.40
2021,05,24,06,58,2.40
2021,05,24,06,59,2.40
2021,05,24,07,00,2.40
2021,05,24,07,01,2.40
2021,05,24,07,02,2.40
2021,05,24,07,03,2.40
2021,05,24,07,04,2.40
2021,05,24,07,05,2.40
2021,05,24,07,06,2.40
2021,05,24,07,07,2.40
2021,05,24,07,08,2.40
2021,05,24,07,09,2.40
2021,05,24,07,10,2.40
2021,05,24,07,11,2.40
2021,05,24,07,12,2.40
2021,05,24,07,13,2.40
2021,05,24,07,14,2.40
2021,05,24,07,15,2.40
2021,05,24,07,16,2.40
2021,05,24,07,17,2.40
2021,05,24,07,18,2.40
2021,05,24,07,19,2.50
2021,05,24,07,20,2.50
2021,05,24,07,21,2.50
2021,05,24,07,22,2.40
2021,05,24,07,23,2.50
2021,05,24,07,24,2.50
2021,05,24,07,25,2.50
2021,05,24,07,26,2.50
2021,05,24,07,27,2.50
2021,05,24,07,28,2.50
2021,05,24,07,29,2.50
2021,05,24,07,30,2.50
2021,05,24,07,31,2.50
2021,05,24,07,32,2.60
2021,05,24,07,33,2.60
2021,05,24,07,34,2.60
2021,05,24,07,35,2.60
2021,05,24,07,36,2.60
2021,05,24,07,37,2.60
2021,05,24,07,38,2.60
2021,05,24,07,39,2.60
2021,05,24,07,40,2.60
2021,05,24,07,41,2.60
2021,05,24,07,42,2.60
2021,05,24,07,43,2.60
2021,05,24,07,44,2.60
2021,05,24,07,45,2.60
2021,05,24,07,46,2.70
2021,05,24,07,47,2.70
2021,05,24,07,48,2.70
2021,05,24,07,49,2.70
2021,05,24,07,50,2.80
2021,05,24,07,51,2.80
2021,05,24,07,52,2.80
2021,05,24,07,53,2.80
2021,05,24,07,54,2.80
2021,05,24,07,55,2.90
2021,05,24,07,56,3.00
2021,05,24,07,57,3.00
2021,05,24,07,58,3.10
2021,05,24,07,59,3.20
2021,05,24,08,00,3.30
2021,05,24,08,01,3.40
2021,05,24,08,02,3.60
2021,05,24,08,03,3.70
2021,05,24,08,04,3.70
2021,05,24,08,05,3.80
2021,05,24,08,06,3.90
2021,05,24,08,07,3.90
2021,05,24,08,08,4.00
2021,05,24,08,09,4.10
2021,05,24,08,10,4.20
2021,05,24,08,11,4.30
2021,05,24,08,12,4.40
2021,05,24,08,13,4.50
2021,05,24,08,14,4.60
2021,05,24,08,15,4.70
2021,05,24,08,16,4.80
2021,05,24,08,17,4.90
2021,05,24,08,18,5.00
2021,05,24,08,19,5.10
2021,05,24,08,20,5.20
2021,05,24,08,21,5.30
2021,05,24,08,22,5.40
2021,05,24,08,23,5.60
2021,05,24,08,24,5.70
2021,05,24,08,25,5.80
2021,05,24,08,26,5.90
2021,05,24,08,27,6.00
2021,05,24,08,28,6.10
2021,05,24,08,29,6.20
2021,05,24,08,30,6.30
2021,05,24,08,31,6.40
2021,05,24,08,32,6.50
2021,05,24,08,33,6.60
2021,05,24,08,34,6.70
2021,05,24,08,35,6.70
2021,05,24,08,36,6.80
2021,05,24,08,37,6.90
2021,05,24,08,38,7.00
2021,05,24,08,39,7.10
2021,05,24,08,40,7.10
2021,05,24,08,41,7.20
2021,05,24,08,42,7.30
2021,05,24,08,43,7.40
2021,05,24,08,44,7.40
2021,05,24,08,45,7.50
2021,05,24,08,46,7.60
2021,05,24,08,47,7.70
2021,05,24,08,48,7.70
2021,05,24,08,49,7.80
2021,05,24,08,50,7.80
2021,05,24,08,51,7.90
2021,05,24,08,52,8.00
2021,05,24,08,53,8.10
2021,05,24,08,54,8.10
2021,05,24,08,55,8.20
2021,05,24,08,56,8.30
2021,05,24,08,57,8.40
2021,05,24,08,58,8.40
2021,05,24,08,59,8.50
2021,05,24,09,00,8.60
2021,05,24,09,01,8.70
2021,05,24,09,02,8.80
2021,05,24,09,03,8.90
2021,05,24,09,04,9.00
2021,05,24,09,05,9.10
2021,05,24,09,06,9.10
2021,05,24,09,07,9.20
2021,05,24,09,08,9.30
2021,05,24,09,09,9.30
2021,05,24,09,10,9.40
2021,05,24,09,11,9.40
2021,05,24,09,12,9.40
2021,05,24,09,13,9.40
2021,05,24,09,14,9.50
2021,05,24,09,15,9.50
2021,05,24,09,16,9.60
2021,05,24,09,17,9.60
2021,05,24,09,18,9.60
2021,05,24,09,19,9.70
2021,05,24,09,20,9.70
2021,05,24,09,21,9.80
2021,05,24,09,22,9.90
2021,05,24,09,23,9.90
2021,05,24,09,24,10.00
2021,05,24,09,25,10.10
2021,05,24,09,26,10.20
2021,05,24,09,27,10.20
2021,05,24,09,28,10.30
2021,05,24,09,29,10.40
2021,05,24,09,30,10.50
2021,05,24,09,31,10.50
2021,05,24,09,32,10.60
2021,05,24,09,33,10.70
2021,05,24,09,34,10.80
2021,05,24,09,35,10.90
2021,05,24,09,36,11.00
2021,05,24,09,37,11.10
2021,05,24,09,38,11.20
2021,05,24,09,39,11.30
2021,05,24,09,40,11.30
2021,05,24,09,41,11.30
2021,05,24,09,42,11.40
2021,05,24,09,43,11.50
2021,05,24,09,44,11.60
2021,05,24,09,45,11.70
2021,05,24,09,46,11.70
2021,05,24,09,47,11.80
2021,05,24,09,48,11.90
2021,05,24,09,49,12.00
2021,05,24,09,50,12.00
2021,05,24,09,51,12.10
2021,05,24,09,52,12.20
2021,05,24,09,53,12.30
2021,05,24,09,54,12.40
2021,05,24,09,55,12.40
2021,05,24,09,56,12.50
2021,05,24,09,57,12.60
2021,05,24,09,58,12.70
2021,05,24,09,59,12.70
2021,05,24,10,00,12.70
2021,05,24,10,01,12.80
2021,05,24,10,02,12.90
2021,05,24,10,03,12.90
2021,05,24,10,04,12.90
2021,05,24,10,05,13.00
2021,05,24,10,06,13.00
2021,05,24,10,07,13.00
2021,05,24,10,08,13.10
2021,05,24,10,09,13.20
2021,05,24,10,10,13.30
2021,05,24,10,11,13.40
2021,05,24,10,12,13.40
2021,05,24,10,13,13.50
2021,05,24,10,14,13.60
2021,05,24,10,15,13.70
2021,05,24,10,16,13.80
2021,05,24,10,17,13.90
2021,05,24,10,18,14.10
2021,05,24,10,19,14.20
2021,05,24,10,20,14.30
2021,05,24,10,21,14.40
2021,05,24,10,22,14.50
2021,05,24,10,23,14.70
2021,05,24,10,24,14.80
2021,05,24,10,25,14.80
2021,05,24,10,26,14.80
2021,05,24,10,27,14.70
2021,05,24,10,28,14.70
2021,05,24,10,29,14.80
2021,05,24,10,30,14.80
2021,05,24,10,31,14.90
2021,05,24,10,32,15.00
2021,05,24,10,33,15.10
2021,05,24,10,34,15.20
2021,05,24,10,35,15.30
2021,05,24,10,36,15.30
2021,05,24,10,37,15.40
2021,05,24,10,38,15.40
2021,05,24,10,39,15.40
2021,05,24,10,40,15.40
2021,05,24,10,41,15.30
2021,05,24,10,42,15.30
2021,05,24,10,43,15.30
2021,05,24,10,44,15.30
2021,05,24,10,45,15.30
2021,05,24,10,46,15.30
2021,05,24,10,47,15.20
2021,05,24,10,48,15.20
2021,05,24,10,49,15.10
2021,05,24,10,50,15.10
2021,05,24,10,51,15.10
2021,05,24,10,52,15.10
2021,05,24,10,53,15.10
2021,05,24,10,54,15.10
2021,05,24,10,55,15.00
2021,05,24,10,56,15.00
2021,05,24,10,57,15.00
2021,05,24,10,58,15.00
2021,05,24,10,59,15.10
2021,05,24,11,00,15.10
2021,05,24,11,01,15.20
2021,05,24,11,02,15.20
2021,05,24,11,03,15.20
2021,05,24,11,04,15.20
2021,05,24,11,05,15.30
2021,05,24,11,06,15.30
2021,05,24,11,07,15.30
2021,05,24,11,08,15.30
2021,05,24,11,09,15.30
2021,05,24,11,10,15.30
2021,05,24,11,11,15.30
2021,05,24,11,12,15.30
2021,05,24,11,13,15.20
2021,05,24,11,14,15.20
2021,05,24,11,15,15.20
2021,05,24,11,16,15.30
2021,05,24,11,17,15.30
2021,05,24,11,18,15.30
2021,05,24,11,19,15.30
2021,05,24,11,20,15.40
2021,05,24,11,21,15.40
2021,05,24,11,22,15.50
2021,05,24,11,23,15.60
2021,05,24,11,24,15.60
2021,05,24,11,25,15.70
2021,05,24,11,26,15.70
2021,05,24,11,27,15.80
2021,05,24,11,28,15.80
2021,05,24,11,29,15.80
2021,05,24,11,30,15.80
2021,05,24,11,31,15.80
2021,05,24,11,32,15.80
2021,05,24,11,33,15.90
2021,05,24,11,34,15.90
2021,05,24,11,35,16.00
2021,05,24,11,36,16.10
2021,05,24,11,37,16.20
2021,05,24,11,38,16.20
2021,05,24,11,39,16.20
2021,05,24,11,40,16.20
2021,05,24,11,41,16.20
2021,05,24,11,42,16.20
2021,05,24,11,43,16.20
2021,05,24,11,44,16.30
2021,05,24,11,45,16.30
2021,05,24,11,46,16.30
2021,05,24,11,47,16.30
2021,05,24,11,48,16.30
2021,05,24,11,49,16.30
2021,05,24,11,50,16.30
2021,05,24,11,51,16.30
2021,05,24,11,52,16.30
2021,05,24,11,53,16.20
2021,05,24,11,54,16.10
2021,05,24,11,55,16.10
2021,05,24,11,56,16.00
2021,05,24,11,57,15.90
2021,05,24,11,58,15.90
2021,05,24,11,59,15.90
2021,05,24,12,00,15.80
2021,05,24,12,01,15.80
2021,05,24,12,02,15.80
2021,05,24,12,03,15.80
2021,05,24,12,04,15.80
2021,05,24,12,05,15.70
2021,05,24,12,06,15.70
2021,05,24,12,07,15.70
2021,05,24,12,08,15.70
2021,05,24,12,09,15.70
2021,05,24,12,10,15.70
2021,05,24,12,11,15.70
2021,05,24,12,12,15.70
2021,05,24,12,13,15.70
2021,05,24,12,14,15.70
2021,05,24,12,15,15.70
2021,05,24,12,16,15.70
2021,05,24,12,17,15.80
2021,05,24,12,18,15.80
2021,05,24,12,19,15.90
2021,05,24,12,20,16.00
2021,05,24,12,21,16.20
2021,05,24,12,22,16.30
2021,05,24,12,23,16.30
2021,05,24,12,24,16.40
2021,05,24,12,25,16.40
2021,05,24,12,26,16.40
2021,05,24,12,27,16.40
2021,05,24,12,28,16.40
2021,05,24,12,29,16.50
2021,05,24,12,30,16.50
2021,05,24,12,31,16.40
2021,05,24,12,32,16.40
2021,05,24,12,33,16.40
2021,05,24,12,34,16.30
2021,05,24,12,35,16.30
2021,05,24,12,36,16.20
2021,05,24,12,37,16.20
2021,05,24,12,38,16.20
2021,05,24,12,39,16.20
2021,05,24,12,40,16.20
2021,05,24,12,41,16.10
2021,05,24,12,42,16.10
2021,05,24,12,43,16.10
2021,05,24,12,44,16.10
2021,05,24,12,45,16.10
2021,05,24,12,46,16.10
2021,05,24,12,47,16.10
2021,05,24,12,48,16.10
2021,05,24,12,49,16.00
2021,05,24,12,50,16.00
2021,05,24,12,51,16.00
2021,05,24,12,52,15.90
2021,05,24,12,53,15.90
2021,05,24,12,54,15.90
2021,05,24,12,55,15.90
2021,05,24,12,56,15.80
2021,05,24,12,57,15.80
2021,05,24,12,58,15.90
2021,05,24,12,59,15.90
2021,05,24,13,00,15.90
2021,05,24,13,01,15.90
2021,05,24,13,02,15.90
2021,05,24,13,03,15.90
2021,05,24,13,04,15.90
2021,05,24,13,05,15.90
2021,05,24,13,06,15.90
2021,05,24,13,07,15.90
2021,05,24,13,08,16.00
2021,05,24,13,09,16.10
2021,05,24,13,10,16.20
2021,05,24,13,11,16.30
2021,05,24,13,12,16.40
2021,05,24,13,13,16.60
2021,05,24,13,14,16.70
2021,05,24,13,15,16.80
2021,05,24,13,16,16.80
2021,05,24,13,17,16.80
2021,05,24,13,18,16.80
2021,05,24,13,19,16.80
2021,05,24,13,20,16.80
2021,05,24,13,21,16.80
2021,05,24,13,22,16.90
2021,05,24,13,23,16.90
2021,05,24,13,24,17.00
2021,05,24,13,25,17.00
2021,05,24,13,26,17.10
2021,05,24,13,27,17.10
2021,05,24,13,28,17.10
2021,05,24,13,29,17.10
2021,05,24,13,30,17.10
2021,05,24,13,31,17.10
2021,05,24,13,32,17.10
2021,05,24,13,33,17.10
2021,05,24,13,34,17.10
2021,05,24,13,35,17.20
2021,05,24,13,36,17.20
2021,05,24,13,37,17.30
2021,05,24,13,38,17.30
2021,05,24,13,39,17.30
2021,05,24,13,40,17.20
2021,05,24,13,41,17.20
2021,05,24,13,42,17.20
2021,05,24,13,43,17.20
2021,05,24,13,44,17.20
2021,05,24,13,45,17.20
2021,05,24,13,46,17.30
2021,05,24,13,47,17.30
2021,05,24,13,48,17.40
2021,05,24,13,49,17.50
2021,05,24,13,50,17.60
2021,05,24,13,51,17.60
2021,05,24,13,52,17.60
2021,05,24,13,53,17.70
2021,05,24,13,54,17.70
2021,05,24,13,55,17.80
2021,05,24,13,56,17.90
2021,05,24,13,57,18.00
2021,05,24,13,58,18.00
2021,05,24,13,59,18.00
2021,05,24,14,00,18.00
2021,05,24,14,01,17.90
2021,05,24,14,02,17.90
2021,05,24,14,03,17.80
2021,05,24,14,04,17.70
2021,05,24,14,05,17.60
2021,05,24,14,06,17.40
2021,05,24,14,07,17.30
2021,05,24,14,08,17.20
2021,05,24,14,09,17.10
2021,05,24,14,10,17.00
2021,05,24,14,11,17.00
2021,05,24,14,12,16.90
2021,05,24,14,13,16.80
2021,05,24,14,14,16.80
2021,05,24,14,15,16.70
2021,05,24,14,16,16.70
2021,05,24,14,17,16.70
2021,05,24,14,18,16.80
2021,05,24,14,19,16.90
2021,05,24,14,20,17.00
2021,05,24,14,21,17.10
2021,05,24,14,22,17.20
2021,05,24,14,23,17.20
2021,05,24,14,24,17.20
2021,05,24,14,25,17.20
2021,05,24,14,26,17.20
2021,05,24,14,27,17.20
2021,05,24,14,28,17.20
2021,05,24,14,29,17.10
2021,05,24,14,30,17.00
2021,05,24,14,31,17.00
2021,05,24,14,32,16.90
2021,05,24,14,33,16.90
2021,05,24,14,34,16.90
2021,05,24,14,35,16.90
2021,05,24,14,36,17.00
2021,05,24,14,37,17.10
2021,05,24,14,38,17.10
2021,05,24,14,39,17.20
2021,05,24,14,40,17.20
2021,05,24,14,41,17.10
2021,05,24,14,42,17.10
2021,05,24,14,43,17.00
2021,05,24,14,44,17.00
2021,05,24,14,45,16.90
2021,05,24,14,46,16.90
2021,05,24,14,47,16.90
2021,05,24,14,48,16.80
2021,05,24,14,49,16.80
2021,05,24,14,50,16.80
2021,05,24,14,51,16.80
2021,05,24,14,52,16.90
2021,05,24,14,53,16.90
2021,05,24,14,54,16.90
2021,05,24,14,55,17.00
2021,05,24,14,56,17.10
2021,05,24,14,57,17.20
2021,05,24,14,58,17.40
2021,05,24,14,59,17.50
2021,05,24,15,00,17.70
2021,05,24,15,01,17.80
2021,05,24,15,02,17.90
2021,05,24,15,03,18.00
2021,05,24,15,04,18.00
2021,05,24,15,05,18.10
2021,05,24,15,06,18.20
2021,05,24,15,07,18.20
2021,05,24,15,08,18.20
2021,05,24,15,09,18.20
2021,05,24,15,10,18.20
2021,05,24,15,11,18.20
2021,05,24,15,12,18.10
2021,05,24,15,13,18.00
2021,05,24,15,14,17.90
2021,05,24,15,15,17.80
2021,05,24,15,16,17.80
2021,05,24,15,17,17.70
2021,05,24,15,18,17.60
2021,05,24,15,19,17.60
2021,05,24,15,20,17.60
2021,05,24,15,21,17.60
2021,05,24,15,22,17.60
2021,05,24,15,23,17.60
2021,05,24,15,24,17.70
2021,05,24,15,25,17.70
2021,05,24,15,26,17.80
2021,05,24,15,27,17.80
2021,05,24,15,28,17.90
2021,05,24,15,29,18.00
2021,05,24,15,30,18.00
2021,05,24,15,31,18.00
2021,05,24,15,32,17.90
2021,05,24,15,33,17.90
2021,05,24,15,34,17.90
2021,05,24,15,35,17.90
2021,05,24,15,36,17.90
2021,05,24,15,37,17.90
2021,05,24,15,38,18.00
2021,05,24,15,39,18.00
2021,05,24,15,40,18.10
2021,05,24,15,41,18.10
2021,05,24,15,42,18.10
2021,05,24,15,43,18.00
2021,05,24,15,44,17.90
2021,05,24,15,45,17.80
2021,05,24,15,46,17.70
2021,05,24,15,47,17.70
2021,05,24,15,48,17.60
2021,05,24,15,49,17.50
2021,05,24,15,50,17.40
2021,05,24,15,51,17.30
2021,05,24,15,52,17.30
2021,05,24,15,53,17.30
2021,05,24,15,54,17.20
2021,05,24,15,55,17.20
2021,05,24,15,56,17.20
2021,05,24,15,57,17.20
2021,05,24,15,58,17.20
2021,05,24,15,59,17.20
2021,05,24,16,00,17.20
2021,05,24,16,01,17.20
2021,05,24,16,02,17.20
2021,05,24,16,03,17.30
2021,05,24,16,04,17.30
2021,05,24,16,05,17.40
2021,05,24,16,06,17.50
2021,05,24,16,07,17.60
2021,05,24,16,08,17.70
2021,05,24,16,09,17.70
2021,05,24,16,10,17.80
2021,05,24,16,11,17.80
2021,05,24,16,12,17.90
2021,05,24,16,13,17.90
2021,05,24,16,14,18.00
2021,05,24,16,15,18.10
2021,05,24,16,16,18.10
2021,05,24,16,17,18.20
2021,05,24,16,18,18.20
2021,05,24,16,19,18.20
2021,05,24,16,20,18.20
2021,05,24,16,21,18.20
2021,05,24,16,22,18.20
2021,05,24,16,23,18.20
2021,05,24,16,24,18.30
2021,05,24,16,25,18.30
2021,05,24,16,26,18.40
2021,05,24,16,27,18.40
2021,05,24,16,28,18.40
2021,05,24,16,29,18.40
2021,05,24,16,30,18.40
2021,05,24,16,31,18.40
2021,05,24,16,32,18.40
2021,05,24,16,33,18.40
2021,05,24,16,34,18.40
2021,05,24,16,35,18.30
2021,05,24,16,36,18.30
2021,05,24,16,37,18.30
2021,05,24,16,38,18.30
2021,05,24,16,39,18.30
2021,05,24,16,40,18.30
2021,05,24,16,41,18.30
2021,05,24,16,42,18.30
2021,05,24,16,43,18.30
2021,05,24,16,44,18.30
2021,05,24,16,45,18.30
2021,05,24,16,46,18.30
2021,05,24,16,47,18.30
2021,05,24,16,48,18.30
2021,05,24,16,49,18.30
2021,05,24,16,50,18.30
2021,05,24,16,51,18.30
2021,05,24,16,52,18.30
2021,05,24,16,53,18.30
2021,05,24,16,54,18.30
2021,05,24,16,55,18.30
2021,05,24,16,56,18.40
2021,05,24,16,57,18.40
2021,05,24,16,58,18.40
2021,05,24,16,59,18.40
2021,05,24,17,00,18.30
2021,05,24,17,01,18.20
2021,05,24,17,02,18.20
2021,05,24,17,03,18.20
2021,05,24,17,04,18.20
2021,05,24,17,05,18.30
2021,05,24,17,06,18.30
2021,05,24,17,07,18.30
2021,05,24,17,08,18.30
2021,05,24,17,09,18.30
2021,05,24,17,10,18.30
2021,05,24,17,11,18.30
2021,05,24,17,12,18.30
2021,05,24,17,13,18.30
2021,05,24,17,14,18.40
2021,05,24,17,15,18.40
2021,05,24,17,16,18.50
2021,05,24,17,17,18.50
2021,05,24,17,18,18.60
2021,05,24,17,19,18.60
2021,05,24,17,20,18.50
2021,05,24,17,21,18.40
2021,05,24,17,22,18.30
2021,05,24,17,23,18.30
2021,05,24,17,24,18.30
2021,05,24,17,25,18.30
2021,05,24,17,26,18.30
2021,05,24,17,27,18.30
2021,05,24,17,28,18.30
2021,05,24,17,29,18.40
2021,05,24,17,30,18.40
2021,05,24,17,31,18.50
2021,05,24,17,32,18.50
2021,05,24,17,33,18.50
2021,05,24,17,34,18.40
2021,05,24,17,35,18.40
2021,05,24,17,36,18.30
2021,05,24,17,37,18.30
2021,05,24,17,38,18.30
2021,05,24,17,39,18.30